| time (UTC) | temp C | wind direction | speed KPH | gust KPH | rain 1hr cm | rain 24hr cm | rain mn cm | humidity % | barometer mb |
| 20260507003021 | 5 | 268 | 6.4 | 6.4 | 0.00 | 0.00 | 0.00 | 91 | 1015.7 |
| 20260507002018 | 5 | 268 | 8.0 | 9.7 | 0.00 | 0.00 | 0.00 | 90 | 1015.8 |
| 20260507001015 | 5 | 268 | 8.0 | 9.7 | 0.00 | 0.00 | 0.00 | 90 | 1015.8 |
| 20260507000042 | 5 | 268 | 0.0 | 1.6 | 0.00 | 0.00 | 0.00 | 89 | 1015.7 |
| 20260506235040 | 6 | 268 | 0.0 | 1.6 | 0.00 | 0.00 | 0.00 | 88 | 1015.7 |
| 20260506234057 | 6 | 0.0 | 0.0 | 0.00 | 0.00 | 0.00 | 88 | 1015.9 | |
| 20260506233034 | 6 | 267 | 0.0 | 1.6 | 0.00 | 0.00 | 0.00 | 87 | 1015.8 |
| 20260506232031 | 6 | 267 | 0.0 | 1.6 | 0.00 | 0.00 | 0.00 | 87 | 1015.8 |
| 20260506231029 | 6 | 267 | 1.6 | 3.2 | 0.00 | 0.00 | 0.00 | 87 | 1015.4 |
| 20260506230026 | 6 | 0.0 | 0.0 | 0.00 | 0.00 | 0.00 | 86 | 1015.5 | |
| 20260506225022 | 7 | 0.0 | 0.0 | 0.00 | 0.00 | 0.00 | 85 | 1015.6 | |
| 20260506224020 | 7 | 267 | 0.0 | 1.6 | 0.00 | 0.00 | 0.00 | 85 | 1015.4 |
| 20260506223017 | 7 | 267 | 3.2 | 9.7 | 0.00 | 0.00 | 0.00 | 87 | 1015.4 |
| 20260506222045 | 6 | 267 | 0.0 | 1.6 | 0.00 | 0.00 | 0.00 | 88 | 1015.4 |
| 20260506221042 | 7 | 267 | 0.0 | 1.6 | 0.00 | 0.00 | 0.00 | 88 | 1015.3 |
| 20260506220059 | 7 | 0.0 | 0.0 | 0.00 | 0.00 | 0.00 | 88 | 1015.2 | |
| 20260506215036 | 7 | 267 | 0.0 | 1.6 | 0.00 | 0.00 | 0.00 | 87 | 1015.2 |
| 20260506214033 | 8 | 267 | 3.2 | 4.8 | 0.00 | 0.00 | 0.00 | 86 | 1015.2 |
| 20260506213050 | 8 | 267 | 8.0 | 9.7 | 0.00 | 0.00 | 0.00 | 85 | 1014.9 |
| 20260506212028 | 8 | 266 | 9.7 | 12.9 | 0.00 | 0.00 | 0.00 | 84 | 1014.8 |
| 20260506211025 | 8 | 266 | 11.3 | 17.7 | 0.00 | 0.00 | 0.00 | 84 | 1014.8 |
| 20260506210022 | 9 | 266 | 14.5 | 17.7 | 0.00 | 0.00 | 0.00 | 84 | 1014.8 |
| 20260506205020 | 9 | 266 | 11.3 | 16.1 | 0.00 | 0.00 | 0.00 | 83 | 1014.8 |
| 20260506204037 | 9 | 266 | 8.0 | 11.3 | 0.00 | 0.00 | 0.00 | 82 | 1014.6 |
| 20260506203044 | 9 | 266 | 6.4 | 9.7 | 0.00 | 0.00 | 0.00 | 82 | 1014.8 |
| 20260506202041 | 9 | 266 | 8.0 | 11.3 | 0.00 | 0.00 | 0.00 | 82 | 1014.6 |
| 20260506201038 | 9 | 266 | 9.7 | 12.9 | 0.00 | 0.00 | 0.00 | 81 | 1014.6 |
| 20260506200035 | 9 | 266 | 8.0 | 11.3 | 0.00 | 0.00 | 0.00 | 80 | 1014.5 |
| 20260506195032 | 9 | 266 | 8.0 | 12.9 | 0.00 | 0.00 | 0.00 | 79 | 1014.3 |
| 20260506194030 | 10 | 266 | 9.7 | 12.9 | 0.00 | 0.00 | 0.00 | 78 | 1014.4 |
| 20260506193027 | 10 | 266 | 11.3 | 12.9 | 0.00 | 0.00 | 0.00 | 77 | 1014.0 |
| 20260506192025 | 10 | 266 | 14.5 | 17.7 | 0.00 | 0.00 | 0.00 | 75 | 1013.9 |
| 20260506191022 | 11 | 266 | 16.1 | 20.9 | 0.00 | 0.00 | 0.00 | 73 | 1013.7 |
| 20260506190019 | 11 | 266 | 16.1 | 22.5 | 0.00 | 0.00 | 0.00 | 73 | 1013.5 |
| 20260506185016 | 11 | 267 | 20.9 | 25.7 | 0.00 | 0.00 | 0.00 | 72 | 1013.2 |
| 20260506184044 | 12 | 269 | 24.1 | 30.6 | 0.00 | 0.00 | 0.00 | 69 | 1013.3 |
| 20260506183040 | 12 | 296 | 20.9 | 24.1 | 0.00 | 0.00 | 0.00 | 67 | 1013.3 |
| 20260506182038 | 12 | 352 | 19.3 | 27.4 | 0.00 | 0.00 | 0.00 | 66 | 1013.2 |
| 20260506181035 | 12 | 28 | 14.5 | 22.5 | 0.00 | 0.00 | 0.00 | 67 | 1013.0 |
| 20260506180033 | 12 | 43 | 14.5 | 16.1 | 0.00 | 0.00 | 0.00 | 65 | 1012.8 |
| 20260506175030 | 12 | 25 | 20.9 | 29.0 | 0.00 | 0.00 | 0.00 | 67 | 1012.8 |
| 20260506174027 | 12 | 28 | 24.1 | 35.4 | 0.00 | 0.00 | 0.00 | 65 | 1012.7 |
| 20260506173043 | 12 | 47 | 19.3 | 27.4 | 0.00 | 0.00 | 0.00 | 66 | 1012.4 |
| 20260506172021 | 13 | 32 | 20.9 | 25.7 | 0.00 | 0.00 | 0.00 | 65 | 1012.5 |
| 20260506171018 | 13 | 35 | 27.4 | 33.8 | 0.00 | 0.00 | 0.00 | 65 | 1012.4 |
| 20260506170016 | 13 | 16 | 30.6 | 38.6 | 0.00 | 0.00 | 0.00 | 65 | 1012.3 |
| 20260506165042 | 13 | 20 | 25.7 | 30.6 | 0.00 | 0.00 | 0.00 | 65 | 1012.3 |
| 20260506164040 | 13 | 17 | 27.4 | 37.0 | 0.00 | 0.00 | 0.00 | 65 | 1012.3 |
| 20260506163037 | 13 | 37 | 30.6 | 38.6 | 0.00 | 0.00 | 0.00 | 65 | 1012.2 |
| 20260506162034 | 13 | 19 | 30.6 | 35.4 | 0.00 | 0.00 | 0.00 | 66 | 1012.0 |
| 20260506161032 | 13 | 42 | 27.4 | 33.8 | 0.00 | 0.00 | 0.00 | 64 | 1012.1 |
| 20260506160028 | 13 | 35 | 22.5 | 30.6 | 0.00 | 0.00 | 0.00 | 66 | 1012.1 |
| 20260506155025 | 13 | 47 | 29.0 | 33.8 | 0.00 | 0.00 | 0.00 | 64 | 1012.0 |
| 20260506154103 | 14 | 38 | 24.1 | 29.0 | 0.00 | 0.00 | 0.00 | 64 | 1012.1 |
| 20260506153040 | 14 | 43 | 30.6 | 37.0 | 0.00 | 0.00 | 0.00 | 65 | 1012.0 |
| 20260506152018 | 14 | 38 | 22.5 | 29.0 | 0.00 | 0.00 | 0.00 | 67 | 1011.9 |
| 20260506151125 | 13 | 34 | 25.7 | 37.0 | 0.00 | 0.00 | 0.00 | 67 | 1011.9 |
| 20260506150042 | 13 | 30 | 29.0 | 38.6 | 0.00 | 0.00 | 0.00 | 67 | 1011.9 |
| 20260506145059 | 14 | 102 | 22.5 | 33.8 | 0.00 | 0.00 | 0.00 | 64 | 1011.9 |
| 20260506144037 | 14 | 31 | 27.4 | 35.4 | 0.00 | 0.00 | 0.00 | 65 | 1011.8 |
| 20260506143034 | 14 | 30 | 27.4 | 30.6 | 0.00 | 0.00 | 0.00 | 64 | 1011.9 |
| 20260506142031 | 13 | 34 | 25.7 | 30.6 | 0.00 | 0.00 | 0.00 | 65 | 1011.9 |
| 20260506141029 | 13 | 30 | 27.4 | 35.4 | 0.00 | 0.00 | 0.00 | 65 | 1011.9 |
| 20260506140026 | 13 | 42 | 22.5 | 29.0 | 0.00 | 0.00 | 0.00 | 65 | 1011.8 |
| 20260506135023 | 13 | 42 | 29.0 | 33.8 | 0.00 | 0.00 | 0.00 | 65 | 1011.8 |
| 20260506134020 | 14 | 40 | 24.1 | 29.0 | 0.00 | 0.00 | 0.00 | 64 | 1011.6 |
| 20260506133018 | 13 | 40 | 29.0 | 37.0 | 0.00 | 0.00 | 0.00 | 65 | 1011.6 |
| 20260506132035 | 13 | 39 | 20.9 | 30.6 | 0.00 | 0.00 | 0.00 | 65 | 1011.6 |
| 20260506131042 | 14 | 63 | 19.3 | 29.0 | 0.00 | 0.00 | 0.00 | 67 | 1011.7 |
| 20260506130040 | 14 | 11 | 17.7 | 22.5 | 0.00 | 0.00 | 0.00 | 68 | 1011.6 |
| 20260506125057 | 13 | 34 | 24.1 | 30.6 | 0.00 | 0.00 | 0.00 | 67 | 1011.6 |
| 20260506124055 | 13 | 47 | 24.1 | 27.4 | 0.00 | 0.00 | 0.00 | 65 | 1011.5 |
| 20260506123032 | 13 | 23 | 20.9 | 29.0 | 0.00 | 0.00 | 0.00 | 67 | 1011.4 |
| 20260506122029 | 13 | 29 | 24.1 | 35.4 | 0.00 | 0.00 | 0.00 | 64 | 1011.6 |
| 20260506121026 | 14 | 355 | 16.1 | 20.9 | 0.00 | 0.00 | 0.00 | 65 | 1011.4 |
| 20260506120023 | 14 | 41 | 12.9 | 14.5 | 0.00 | 0.00 | 0.00 | 61 | 1011.4 |
| 20260506115021 | 13 | 57 | 14.5 | 20.9 | 0.00 | 0.00 | 0.00 | 58 | 1011.5 |
| 20260506114018 | 15 | 38 | 19.3 | 25.7 | 0.00 | 0.00 | 0.00 | 61 | 1011.4 |
| 20260506113035 | 13 | 38 | 20.9 | 25.7 | 0.00 | 0.00 | 0.00 | 61 | 1011.5 |
| 20260506112043 | 14 | 75 | 25.7 | 33.8 | 0.00 | 0.00 | 0.00 | 62 | 1011.5 |
| 20260506111040 | 13 | 30 | 20.9 | 25.7 | 0.00 | 0.00 | 0.00 | 67 | 1011.4 |
| 20260506110037 | 14 | 52 | 20.9 | 25.7 | 0.00 | 0.00 | 0.00 | 65 | 1011.4 |
| 20260506105053 | 13 | 45 | 25.7 | 33.8 | 0.00 | 0.00 | 0.00 | 65 | 1011.5 |
| 20260506104030 | 13 | 53 | 20.9 | 25.7 | 0.00 | 0.00 | 0.00 | 69 | 1011.5 |
| 20260506103027 | 13 | 28 | 17.7 | 24.1 | 0.00 | 0.00 | 0.00 | 70 | 1011.4 |
| 20260506102025 | 13 | 35 | 19.3 | 24.1 | 0.00 | 0.00 | 0.00 | 71 | 1011.3 |
| 20260506101022 | 13 | 46 | 17.7 | 22.5 | 0.00 | 0.00 | 0.00 | 71 | 1011.5 |
| 20260506100039 | 13 | 35 | 19.3 | 24.1 | 0.00 | 0.00 | 0.00 | 72 | 1011.3 |
| 20260506095037 | 13 | 50 | 17.7 | 22.5 | 0.00 | 0.00 | 0.00 | 74 | 1011.4 |
| 20260506094044 | 12 | 51 | 16.1 | 22.5 | 0.00 | 0.00 | 0.00 | 74 | 1011.4 |
| 20260506093041 | 12 | 37 | 25.7 | 30.6 | 0.00 | 0.00 | 0.00 | 76 | 1011.5 |
| 20260506092038 | 12 | 354 | 22.5 | 29.0 | 0.00 | 0.00 | 0.00 | 76 | 1011.3 |
| 20260506091035 | 12 | 15 | 19.3 | 22.5 | 0.00 | 0.00 | 0.00 | 78 | 1011.4 |
| 20260506090033 | 12 | 43 | 17.7 | 22.5 | 0.00 | 0.00 | 0.00 | 78 | 1011.4 |
| 20260506085030 | 12 | 26 | 12.9 | 20.9 | 0.00 | 0.00 | 0.00 | 77 | 1011.4 |
| 20260506084027 | 12 | 44 | 20.9 | 25.7 | 0.00 | 0.00 | 0.00 | 75 | 1011.3 |
| 20260506083044 | 12 | 41 | 17.7 | 25.7 | 0.00 | 0.00 | 0.00 | 76 | 1011.3 |
| 20260506082022 | 12 | 65 | 27.4 | 35.4 | 0.00 | 0.00 | 0.00 | 75 | 1011.3 |
| 20260506081019 | 12 | 39 | 20.9 | 30.6 | 0.00 | 0.00 | 0.00 | 75 | 1011.3 |
| 20260506073039 | 11 | 33 | 17.7 | 20.9 | 0.00 | 0.00 | 0.00 | 80 | 1011.1 |
| 20260506072036 | 12 | 42 | 16.1 | 17.7 | 0.00 | 0.00 | 0.00 | 81 | 1011.2 |
| 20260506071033 | 11 | 51 | 17.7 | 25.7 | 0.00 | 0.00 | 0.00 | 81 | 1011.2 |
| 20260506062019 | 10 | 28 | 16.1 | 20.9 | 0.00 | 0.00 | 0.00 | 85 | 1011.1 |
| 20260506061017 | 10 | 351 | 16.1 | 24.1 | 0.00 | 0.00 | 0.00 | 85 | 1011.0 |
| 20260506051031 | 10 | 266 | 16.1 | 22.5 | 0.00 | 0.00 | 0.00 | 86 | 1010.8 |
| 20260506045025 | 10 | 266 | 16.1 | 20.9 | 0.00 | 0.00 | 0.00 | 85 | 1011.0 |
| 20260506044022 | 10 | 266 | 17.7 | 20.9 | 0.00 | 0.00 | 0.00 | 85 | 1011.0 |
| 20260506043019 | 10 | 266 | 16.1 | 20.9 | 0.00 | 0.00 | 0.00 | 85 | 1011.0 |
| 20260506042016 | 10 | 266 | 17.7 | 22.5 | 0.00 | 0.00 | 0.00 | 84 | 1010.9 |
| 20260506041044 | 10 | 267 | 19.3 | 22.5 | 0.00 | 0.00 | 0.00 | 83 | 1011.0 |
| 20260506040041 | 10 | 266 | 14.5 | 17.7 | 0.00 | 0.00 | 0.00 | 82 | 1011.0 |
| 20260506035038 | 10 | 267 | 19.3 | 22.5 | 0.00 | 0.00 | 0.00 | 82 | 1011.0 |
| 20260506034036 | 10 | 267 | 17.7 | 22.5 | 0.00 | 0.00 | 0.00 | 82 | 1011.0 |
| 20260506033033 | 10 | 266 | 16.1 | 22.5 | 0.00 | 0.00 | 0.00 | 84 | 1011.0 |
| 20260506032030 | 10 | 266 | 19.3 | 20.9 | 0.00 | 0.00 | 0.00 | 85 | 1011.2 |
| 20260506031028 | 10 | 266 | 14.5 | 17.7 | 0.00 | 0.00 | 0.00 | 85 | 1011.2 |
| 20260506030105 | 10 | 266 | 19.3 | 24.1 | 0.00 | 0.00 | 0.00 | 85 | 1011.1 |
| 20260506025022 | 10 | 266 | 12.9 | 14.5 | 0.00 | 0.00 | 0.00 | 85 | 1011.4 |
| 20260506024019 | 10 | 266 | 16.1 | 17.7 | 0.00 | 0.00 | 0.00 | 85 | 1011.3 |
| 20260506023016 | 10 | 266 | 17.7 | 24.1 | 0.00 | 0.00 | 0.00 | 85 | 1011.4 |
| 20260506022043 | 10 | 266 | 17.7 | 22.5 | 0.00 | 0.00 | 0.00 | 85 | 1011.4 |
| 20260506021100 | 10 | 266 | 17.7 | 22.5 | 0.00 | 0.00 | 0.00 | 84 | 1011.4 |
| 20260506020037 | 9 | 266 | 16.1 | 20.9 | 0.00 | 0.00 | 0.00 | 85 | 1011.3 |
| 20260506015035 | 9 | 266 | 16.1 | 20.9 | 0.00 | 0.00 | 0.00 | 85 | 1011.6 |
| 20260506014032 | 9 | 266 | 12.9 | 16.1 | 0.00 | 0.00 | 0.00 | 85 | 1011.6 |
| 20260506013028 | 9 | 266 | 16.1 | 17.7 | 0.00 | 0.00 | 0.00 | 85 | 1011.6 |
| 20260506012026 | 9 | 266 | 17.7 | 22.5 | 0.00 | 0.00 | 0.00 | 85 | 1011.5 |
| 20260506011023 | 9 | 266 | 14.5 | 16.1 | 0.00 | 0.00 | 0.00 | 86 | 1011.7 |
| 20260506010020 | 9 | 266 | 12.9 | 17.7 | 0.00 | 0.00 | 0.00 | 86 | 1011.6 |
| 20260506005017 | 9 | 266 | 16.1 | 20.9 | 0.00 | 0.00 | 0.00 | 86 | 1011.8 |
| 20260506004044 | 9 | 266 | 14.5 | 16.1 | 0.00 | 0.00 | 0.00 | 86 | 1011.9 |